Location: San Gennaro Vesuviano
(40.8833°N, 14.5333°E)
Time: 21:41:44
(UTC+00:00)

USA 215 - Pass Details

Date: 22 April 2021
Orbit: 1101 x 1107 km, 123.0° (Epoch: 07 May)

Event Time Altitude Azimuth Distance (km) Brightness Sun altitude
Exits shadow 21:21:35 79° 265° (W) 1,122 3.2 -31.9°
Drops below altitude 10° 21:27:51 10° 312° (NW) 2,962 6.3 -32.5°
Sets 21:30:20 0° 313° (NW) 3,922 7.1 -32.7°
